Stations météo

réclame
Mon MeteoGroup
Caen, France (7027): Température de l'air & dewpoint: 10.06.2019 17:00:00 - 16.06.2019 17:00:00 (CEST)Caen, France (7027): Température de l'air 5cm: 10.06.2019 17:00:00 - 16.06.2019 17:00:00 (CEST)Caen, France (7027): Température de l'air -20cm & Température de l'air -100cm: 10.06.2019 17:00:00 - 16.06.2019 17:00:00 (CEST)Caen, France (7027): Vitesse du vent & gusts: 10.06.2019 17:00:00 - 16.06.2019 17:00:00 (CEST)Caen, France (7027): Direction du vent: 10.06.2019 17:00:00 - 16.06.2019 17:00:00 (CEST)Caen, France (7027): reduced air pressure: 10.06.2019 17:00:00 - 16.06.2019 17:00:00 (CEST)Caen, France (7027): visibility: 10.06.2019 17:00:00 - 16.06.2019 17:00:00 (CEST)Caen, France (7027): Ensoleillement: 10.06.2019 17:00:00 - 16.06.2019 17:00:00 (CEST)Caen, France (7027): Quantités de précipitations: 10.06.2019 17:00:00 - 16.06.2019 17:00:00 (CEST)
Date & Time tt [°C] td [°C] tt 5cm [°C] tt -20cm [°C] tt -100cm [°C] ff [km/h] ff [knt] fx [km/h] fx [knt] dd ppp [hPa] vv [km] sd [min] rr [mm]
16.06.2019 17:00:00 18,7 13,1 19,4 15,9 14,5 11 6 22 12 SW 1020,2 41 0 0,0
16.06.2019 16:00:00 19,1 13,5 16,3 15,9 14,5 11 6 36 19 SSW 1020,3 31 6 0,0
16.06.2019 15:00:00 19,6 12,8 20,3 15,8 14,5 19 10 35 19 SW 1020,2 42 3 0,0
16.06.2019 14:00:00 20,6 13,8 21,1 15,8 14,5 19 11 34 18 SW 1020,1 51 22 0,0
16.06.2019 13:00:00 18,8 12,1 20,8 15,7 14,5 25 13 38 20 SW 1020,1 50 25 0,0
16.06.2019 12:00:00 18,7 12,4 21,3 15,8 14,5 22 12 43 23 SW 1020,0 19 43 0,0
16.06.2019 11:00:00 17,8 12,7 18,9 15,8 14,5 25 13 42 23 WSW 1019,9 60 45 0,0
16.06.2019 10:00:00 16,6 13,9 16,2 15,8 14,5 21 11 41 22 SW 1020,0 60 12 0,0
16.06.2019 09:00:00 15,3 12,6 13,9 15,9 14,5 20 11 36 19 SSW 1019,6 39 5 0,0
16.06.2019 08:00:00 14,2 12,6 13,2 15,9 14,5 8 4 16 8 SSW 1019,2 32 0 0,2
16.06.2019 07:00:00 13,1 12,0 11,2 15,9 14,5 7 4 16 8 S 1018,9 29 8 0,0
16.06.2019 06:00:00 12,2 11,1 10,5 16,0 14,6 10 5 19 10 S 1018,5 37 0 0,0
16.06.2019 05:00:00 12,8 11,5 10,2 16,0 14,5 13 7 23 12 SW 1018,2 37 0 0,0
16.06.2019 04:00:00 12,6 11,2 11,4 16,0 14,5 13 7 24 13 SW 1018,3 38 0 0,0
16.06.2019 03:00:00 13,2 11,6 12,2 16,0 14,5 16 9 30 16 SW 1018,1 38 0 0,0
16.06.2019 02:00:00 14,6 12,3 13,8 16,0 14,5 18 10 33 18 SSW 1017,6 37 0 0,0
16.06.2019 01:00:00 14,5 12,7 13,3 16,0 14,5 19 10 31 17 SSW 1017,3 32 0 0,0
16.06.2019 00:00:00 14,4 12,8 13,2 16,0 14,5 18 10 35 19 SSW 1017,1 49 0 0,0
15.06.2019 23:00:00 14,6 12,8 12,8 16,0 14,5 19 10 28 15 SSW 1016,8 43 0 0,0
15.06.2019 22:00:00 14,3 12,7 12,8 16,0 14,5 13 7 27 15 SSW 1016,4 44 2 0,0
15.06.2019 21:00:00 15,0 13,9 14,4 16,0 14,5 11 6 40 21 S 1016,2 18 31 0,2
15.06.2019 20:00:00 16,5 14,3 15,7 16,0 14,5 21 11 46 25 S 1015,9 13 34 0,0
15.06.2019 19:00:00 15,8 13,1 14,7 16,0 14,5 21 11 45 24 S 1015,9 31 0 0,2
15.06.2019 18:00:00 17,9 11,7 16,4 15,9 14,5 23 12 36 20 SSW 1015,3 47 3 0,0
15.06.2019 17:00:00 17,5 10,6 17,7 15,9 14,5 19 10 28 15 S 1015,5 49 0 0,0
15.06.2019 16:00:00 17,6 11,2 17,5 15,9 14,5 15 8 35 19 SSW 1015,5 60 0 0,0
15.06.2019 15:00:00 17,3 9,9 17,7 15,9 14,5 21 12 37 20 SSW 1015,5 60 2 0,0
15.06.2019 14:00:00 17,8 11,6 16,5 15,8 14,5 21 11 34 18 SSW 1015,6 60 0 0,0
15.06.2019 13:00:00 16,5 9,9 17,0 15,8 14,5 23 12 36 20 SSW 1015,4 48 18 0,0
15.06.2019 12:00:00 16,4 10,3 17,1 15,8 14,5 20 11 35 19 SW 1015,1 53 18 0,0
15.06.2019 11:00:00 16,1 10,4 18,8 15,8 14,4 22 12 34 19 SSW 1015,1 54 37 0,0
15.06.2019 10:00:00 16,1 11,3 15,6 15,9 14,5 20 11 32 17 SW 1014,8 60 45 0,0
15.06.2019 09:00:00 14,0 11,3 15,0 15,9 14,5 16 9 27 14 SW 1014,8 52 23 0,0
15.06.2019 08:00:00 13,4 11,1 12,3 16,0 14,5 15 8 23 12 SSW 1014,3 21 58 0,0
15.06.2019 07:00:00 10,9 9,8 7,7 16,0 14,5 13 7 17 9 SSW 1014,0 20 35 0,0
15.06.2019 06:00:00 9,6 8,8 7,8 16,0 14,5 10 5 18 10 SW 1014,0 28 0 0,0
15.06.2019 05:00:00 10,5 9,4 9,1 16,0 14,5 11 6 22 12 SW 1013,7 26 0 0,0
15.06.2019 04:00:00 10,9 10,1 9,1 16,1 14,5 11 6 15 8 SW 1013,6 24 0 0,0
15.06.2019 03:00:00 11,6 10,7 9,6 16,1 14,5 9 5 11 6 WSW 1013,4 27 0 0,0
15.06.2019 02:00:00 12,5 11,7 11,3 16,1 14,5 8 5 10 5 W 1013,3 52 0 0,0
15.06.2019 01:00:00 13,1 12,2 12,3 16,0 14,5 6 3 9 5 W 1013,3 45 0 0,0
15.06.2019 00:00:00 13,7 12,3 12,9 16,0 14,5 7 4 9 5 W 1013,2 52 0 0,0
14.06.2019 23:00:00 13,5 11,4 12,2 16,0 14,5 8 5 16 8 NW 1013,2 46 0 0,0
14.06.2019 22:00:00 15,2 10,8 14,5 15,9 14,5 6 3 16 8 NNE 1012,9 60 23 0,0
14.06.2019 21:00:00 16,2 10,3 16,5 15,8 14,5 9 5 20 11 N 1012,5 59 20 0,0
14.06.2019 20:00:00 16,6 9,8 17,4 15,7 14,5 16 9 26 14 N 1012,1 58 1 0,0
14.06.2019 19:00:00 20,2 8,8 20,7 15,6 14,5 15 8 39 21 WSW 1011,3 60 29 0,0
14.06.2019 18:00:00 20,0 8,0 21,7 15,5 14,4 16 9 28 15 SSW 1011,5 60 42 0,0
14.06.2019 17:00:00 20,8 8,1 22,4 15,4 14,5 21 11 32 17 SSW 1012,0 60 54 0,0
14.06.2019 16:00:00 19,8 9,4 23,4 15,4 14,5 14 8 35 19 S 1012,3 60 52 0,0
14.06.2019 15:00:00 19,6 10,0 20,4 15,3 14,4 22 12 31 17 S 1012,9 60 33 0,0
14.06.2019 14:00:00 17,9 10,3 20,4 15,3 14,4 14 8 28 15 WSW 1013,1 60 7 0,0
14.06.2019 13:00:00 18,3 11,8 19,4 15,3 14,4 14 8 30 16 SSW 1013,1 20 25 0,0
14.06.2019 12:00:00 17,4 10,3 19,9 15,3 14,4 18 10 31 17 SW 1012,9 28 49 0,0
14.06.2019 11:00:00 16,5 9,9 21,1 15,4 14,5 21 12 32 18 SSW 1012,9 27 60 0,0
14.06.2019 10:00:00 15,2 10,4 18,5 15,4 14,5 20 11 30 16 SSW 1013,2 32 60 0,0
14.06.2019 09:00:00 13,5 11,0 15,0 15,5 14,5 19 10 29 16 SSW 1012,9 1,4 60 0,0
14.06.2019 08:00:00 11,4 10,0 9,5 15,5 14,4 11 6 21 12 SSW 1012,6 35 60 0,0
14.06.2019 07:00:00 9,3 8,7 6,1 15,6 14,5 11 6 16 9 S 1012,5 35 34 0,0
14.06.2019 06:00:00 8,4 7,6 6,7 15,6 14,5 12 6 18 10 S 1012,2 33 0 0,0
14.06.2019 05:00:00 8,9 8,3 5,5 15,7 14,5 12 7 16 9 SSW 1011,9 45 0 0,0
14.06.2019 04:00:00 9,4 8,2 7,4 15,7 14,4 14 8 22 12 SSW 1011,9 50 0 0,0
14.06.2019 03:00:00 8,9 8,1 5,1 15,7 14,4 14 7 17 9 S 1011,9 56 0 0,0
14.06.2019 02:00:00 9,3 8,2 5,5 15,8 14,4 11 6 15 8 SSW 1012,0 47 0 0,0
14.06.2019 01:00:00 9,8 8,7 6,2 15,8 14,4 8 5 14 8 SW 1012,0 47 0 0,0
14.06.2019 00:00:00 10,8 9,2 7,6 15,8 14,5 11 6 14 7 SSW 1011,8 44 0 0,0
13.06.2019 23:00:00 12,0 9,6 9,0 15,8 14,5 6 4 11 6 SSW 1011,6 51 0 0,0
13.06.2019 22:00:00 12,9 10,1 9,6 15,7 14,4 8 4 15 8 SW 1011,0 49 1 0,0
13.06.2019 21:00:00 15,3 10,5 15,3 15,7 14,4 11 6 23 12 SW 1010,7 60 20 0,0
13.06.2019 20:00:00 15,6 10,4 15,8 15,6 14,4 14 7 29 16 WSW 1010,4 58 2 0,0
13.06.2019 19:00:00 17,0 9,9 17,6 15,6 14,4 22 12 39 21 WSW 1009,8 38 44 0,0
13.06.2019 18:00:00 16,8 11,3 15,4 15,6 14,5 21 11 34 19 SW 1009,7 48 18 0,0
13.06.2019 17:00:00 14,9 9,7 15,0 15,5 14,4 23 12 41 22 WSW 1009,9 43 25 0,0
13.06.2019 16:00:00 15,3 11,1 13,8 15,5 14,5 23 12 44 24 SW 1009,7 32 5 0,2
13.06.2019 15:00:00 16,5 9,9 19,6 15,5 14,4 32 17 51 27 SW 1009,4 33 39 0,0
13.06.2019 14:00:00 15,9 12,1 13,3 15,5 14,4 18 10 43 23 SSW 1009,5 39 14 0,0
13.06.2019 13:00:00 16,3 11,4 15,3 15,5 14,4 30 16 44 24 SSW 1009,4 38 36 0,0
13.06.2019 12:00:00 13,6 11,1 12,8 15,5 14,4 25 13 40 21 SW 1009,6 38 0 0,6
13.06.2019 11:00:00 12,9 11,8 11,9 15,5 14,4 17 9 31 17 SW 1009,6 23 0 1,6
13.06.2019 10:00:00 14,2 11,0 14,2 15,6 14,4 21 11 31 17 SSW 1009,3 49 8 0,0
13.06.2019 09:00:00 12,9 11,0 12,6 15,6 14,4 17 9 27 15 SSW 1009,2 23 4 0,0
13.06.2019 08:00:00 11,8 10,4 11,4 15,7 14,4 12 7 20 11 S 1009,0 19 0 0,0
13.06.2019 07:00:00 10,7 9,9 8,0 15,7 14,4 8 4 13 7 S 1009,2 17 20 0,0
13.06.2019 06:00:00 10,0 9,1 8,6 15,7 14,4 9 5 14 8 S 1009,1 21 0 0,0
13.06.2019 05:00:00 9,9 9,3 8,7 15,7 14,4 5 3 20 11 S 1009,0 13 0 0,0
13.06.2019 04:00:00 11,1 10,0 10,6 15,7 14,4 13 7 23 13 SSW 1009,3 16 0 0,0
13.06.2019 03:00:00 10,9 10,0 10,4 15,8 14,4 11 6 21 12 SW 1009,5 20 0 0,0
13.06.2019 02:00:00 10,7 9,9 9,6 15,8 14,4 14 7 18 10 SSW 1009,7 22 0 0,0
13.06.2019 01:00:00 10,0 9,5 8,4 15,8 14,4 9 5 14 7 SSW 1009,8 24 0 0,0
13.06.2019 00:00:00 10,4 9,6 8,9 15,8 14,4 11 6 14 8 SSW 1009,7 29 0 0,0
12.06.2019 23:00:00 10,1 9,6 7,9 15,8 14,4 5 3 9 5 WSW 1009,7 28 0 0,0
12.06.2019 22:00:00 11,3 9,7 10,5 15,7 14,4 10 6 16 9 W 1009,1 35 38 0,0
12.06.2019 21:00:00 13,3 10,1 14,5 15,7 14,4 5 3 14 8 WSW 1008,5 47 60 0,0
12.06.2019 20:00:00 13,9 10,9 12,9 15,7 14,4 10 6 27 14 WSW 1008,5 56 41 0,0
12.06.2019 19:00:00 13,0 10,5 12,8 15,6 14,5 18 10 27 14 WSW 1008,6 42 0 0,0
12.06.2019 18:00:00 13,7 11,2 12,0 15,5 14,4 3 2 20 11 N 1008,6 20 0 2,2
12.06.2019 17:00:00 14,5 12,2 14,3 15,5 14,4 12 7 26 14 NE 1008,0 12 17 0,2
12.06.2019 16:00:00 17,5 10,1 19,8 15,4 14,4 5 3 17 9 SE 1007,8 20 14 0,0
12.06.2019 15:00:00 17,7 8,8 19,8 15,3 14,4 6 4 22 12 E 1007,9 59 17 0,0
12.06.2019 14:00:00 17,2 9,9 19,5 15,4 14,5 10 6 26 14 SE 1008,2 50 49 0,0
12.06.2019 13:00:00 16,0 10,1 18,0 15,3 14,4 15 8 25 14 ESE 1008,4 52 39 0,0
12.06.2019 12:00:00 14,3 10,7 15,6 15,3 14,4 10 6 19 10 SE 1008,5 35 6 0,0
12.06.2019 11:00:00 12,9 10,6 14,0 15,3 14,4 13 7 22 12 SSE 1008,9 22 0 0,0
12.06.2019 10:00:00 11,9 10,5 13,4 15,3 14,4 15 8 22 12 SE 1008,9 21 0 0,2
12.06.2019 09:00:00 12,2 11,1 12,8 15,4 14,4 11 6 16 9 ESE 1009,0 22 0 0,0
12.06.2019 08:00:00 11,5 10,1 11,0 15,4 14,4 8 5 16 9 ESE 1009,1 20 9 0,0
12.06.2019 07:00:00 10,9 10,3 10,1 15,4 14,4 13 7 19 10 ESE 1009,0 15 11 0,0
12.06.2019 06:00:00 10,6 10,1 10,1 15,5 14,4 7 4 10 6 ESE 1008,9 15 0 0,0
12.06.2019 05:00:00 11,1 10,5 10,6 15,5 14,4 4 2 11 6 ESE 1008,9 22 0 0,0
12.06.2019 04:00:00 10,9 10,3 6,9 15,5 14,5 8 5 11 6 E 1009,6 40 0 0,0
12.06.2019 03:00:00 11,4 10,1 9,6 15,5 14,5 0 0 6 3 N 1009,8 59 0 0,0
12.06.2019 02:00:00 11,7 9,9 10,5 15,5 14,5 3 2 11 6 E 1010,2 57 0 0,0
12.06.2019 01:00:00 12,0 10,6 11,4 15,5 14,5 7 4 11 6 E 1010,7 57 0 0,0
12.06.2019 00:00:00 12,3 10,7 11,5 15,5 14,5 4 2 10 5 ENE 1010,9 48 0 0,0
11.06.2019 23:00:00 12,3 10,7 11,4 15,5 14,5 0 0 6 3 N 1011,2 36 0 0,2
11.06.2019 22:00:00 12,7 10,2 11,6 15,5 14,5 2 1 6 4 NNE 1011,2 40 0 0,0
11.06.2019 21:00:00 12,6 10,0 11,4 15,4 14,5 5 3 23 12 S 1011,0 58 0 0,0
11.06.2019 20:00:00 13,9 11,8 12,6 15,4 14,5 6 3 29 15 WNW 1010,4 37 0 1,8
11.06.2019 19:00:00 15,3 11,1 14,3 15,3 14,5 17 9 27 15 NNE 1010,4 55 19 0,0
11.06.2019 18:00:00 15,0 10,8 15,5 15,2 14,5 18 10 34 18 NNE 1010,6 29 12 0,0
11.06.2019 17:00:00 16,5 9,4 17,6 15,1 14,5 13 7 32 17 NE 1010,4 52 20 0,0
11.06.2019 16:00:00 17,4 9,0 19,5 15,1 14,5 10 6 25 14 ESE 1010,6 20 30 0,0
11.06.2019 15:00:00 17,0 8,4 13,2 15,1 14,5 11 6 31 17 ESE 1010,7 57 12 0,0
11.06.2019 14:00:00 15,6 8,1 17,3 15,0 14,5 8 4 20 11 SE 1010,7 57 21 0,0
11.06.2019 13:00:00 15,2 8,2 17,1 15,0 14,5 15 8 24 13 SSE 1010,8 60 27 0,0
11.06.2019 12:00:00 14,8 7,8 16,1 15,0 14,5 13 7 28 15 S 1010,8 60 25 0,0
11.06.2019 11:00:00 14,8 9,4 17,6 15,1 14,5 16 9 31 17 SSW 1010,4 31 58 0,0
11.06.2019 10:00:00 12,8 9,4 12,4 15,1 14,5 22 12 31 17 S 1010,3 32 37 0,0
11.06.2019 09:00:00 10,9 9,8 10,0 15,1 14,5 18 10 28 15 S 1010,6 19 10 0,0
11.06.2019 08:00:00 9,1 8,6 8,7 15,2 14,5 20 11 27 14 SSE 1010,8 10 26 0,0
11.06.2019 07:00:00 8,6 8,5 4,7 15,3 14,5 10 5 14 8 S 1010,4 12 35 0,0
11.06.2019 06:00:00 7,8 7,4 4,9 15,3 14,5 6 3 11 6 S 1010,7 14 0 0,0
11.06.2019 05:00:00 8,8 8,3 8,0 15,3 14,5 8 5 18 10 S 1011,1 15 0 0,2
11.06.2019 04:00:00 8,5 8,2 5,4 15,4 14,5 12 6 17 9 SSW 1011,5 14 0 0,0
11.06.2019 03:00:00 7,2 6,8 5,7 15,4 14,5 11 6 16 9 SW 1012,0 9 0 0,0
11.06.2019 02:00:00 7,7 7,4 5,3 15,4 14,5 12 6 19 10 SSW 1012,5 11 0 0,0
11.06.2019 01:00:00 8,8 8,3 5,9 15,5 14,5 11 6 18 10 WSW 1012,7 11 0 0,0
11.06.2019 00:00:00 8,4 7,6 6,7 15,4 14,5 10 6 14 8 SW 1013,5 16 0 0,0
10.06.2019 23:00:00 10,0 8,9 9,0 15,5 14,5 8 4 12 6 WSW 1013,9 20 0 0,0
10.06.2019 22:00:00 10,8 8,9 10,3 15,5 14,5 9 5 17 9 WNW 1013,6 32 16 0,0
10.06.2019 21:00:00 11,6 9,2 11,1 15,4 14,5 11 6 22 12 W 1013,6 35 21 0,0
10.06.2019 20:00:00 14,3 9,5 12,8 15,4 14,5 11 6 22 12 W 1013,5 60 14 0,0
10.06.2019 19:00:00 13,3 9,4 13,9 15,4 14,5 10 6 20 11 WSW 1013,9 46 10 0,0
10.06.2019 18:00:00 12,2 8,8 13,8 15,3 14,5 15 8 22 12 WSW 1014,3 53 0 0,0
10.06.2019 17:00:00 12,6 9,2 14,3 15,4 14,5 15 8 27 14 W 1014,6 49 1 0,0

tt = Température de l'air
td = dewpoint
tt 5cm = Température de l'air 5cm
tt -20cm = Température de l'air -20cm
tt -100cm = Température de l'air -100cm
ff = Vitesse du vent
fx = gusts
dd = Direction du vent
ppp = reduced air pressure
vv = visibility
sd = Ensoleillement
rr = Quantités de précipitations

stations d'obs. à proximité